Blackwell, OK

3:34 AM CST on February 06, 2016 (GMT -0600)
Blackwell

Weather History for KBKN - November, 2012

Change the Weather History Date:

Friday, November 23, 2012

  Actual Average (KPNC) Record (KPNC)
Temperature  
Mean Temperature 38 °F -  
Max Temperature 48 °F 58 °F 76 °F (1966)
Min Temperature 26 °F 35 °F 16 °F (1975)
Degree Days  
Heating Degree Days 27    
Moisture  
Dew Point 21 °F    
Average Humidity 50    
Maximum Humidity 76    
Minimum Humidity 27    
Precipitation  
Precipitation 0.00 in - - ()
Sea Level Pressure  
Sea Level Pressure 30.46 in    
Wind  
Wind Speed 11 mph (NNW)    
Max Wind Speed 29 mph    
Max Gust Speed 34 mph    
Visibility 10 miles    
Events      
Averages and records for this station are not official NWS values.
T = Trace of Precipitation, MM = Missing Value Source: NWS Daily Summary

Daily Weather History Graph

Daily Weather History Graph

Search for Another Location

Airport or City:

Trip Planner

Search our weather history database for the weather conditions in past years. The results will help you decide how hot, cold, wet, or windy it might be!

Date:

Astronomy

Nov. 23, 2012 Rise Set
Actual Time 7:16 AM CST 5:15 PM CST
Civil Twilight 6:48 AM CST 5:43 PM CST
Nautical Twilight 6:16 AM CST 6:15 PM CST
Astronomical Twilight 5:45 AM CST 6:46 PM CST
Moon 2:25 PM CST (11/23) 2:42 AM CST (11/23)
Length of Visible Light 10h 55m
Length of Day
9h 59m
Waxing Gibbous, 80% of the Moon is Illuminated
Nov 23
Waxing Gibbous
Nov 28
Full
Dec 6
Last Quarter
Dec 13
New
Dec 19
First Quarter

Hourly Weather History & Observations

Time (CST) Temp. Windchill Dew Point Humidity Pressure Visibility Wind Dir Wind Speed Gust Speed Precip Events Conditions
12:15 AM 48.2 °F - 33.8 °F 58% 30.30 in 10.0 mi North 9.2 mph - N/A   Clear
12:35 AM 48.2 °F - 33.8 °F 58% 30.31 in 10.0 mi North 8.1 mph - N/A   Clear
12:55 AM 44.6 °F 40.7 °F 32.0 °F 61% 30.32 in 10.0 mi North 6.9 mph - N/A   Clear
1:15 AM 44.6 °F 40.2 °F 32.0 °F 61% 30.33 in 10.0 mi NNW 8.1 mph - N/A   Clear
1:35 AM 42.8 °F 38.0 °F 32.0 °F 66% 30.34 in 10.0 mi NNW 8.1 mph - N/A   Clear
1:55 AM 41.0 °F 35.8 °F 32.0 °F 70% 30.35 in 10.0 mi NNW 8.1 mph - N/A   Clear
2:15 AM 41.0 °F 36.4 °F 32.0 °F 70% 30.36 in 10.0 mi NW 6.9 mph - N/A   Clear
2:35 AM 39.2 °F 34.2 °F 32.0 °F 75% 30.37 in 10.0 mi NW 6.9 mph - N/A   Clear
2:55 AM 41.0 °F 35.2 °F 33.8 °F 76% 30.38 in 10.0 mi NW 9.2 mph - N/A   Clear
3:15 AM 39.2 °F 34.2 °F 32.0 °F 75% 30.38 in 10.0 mi NNW 6.9 mph - N/A   Clear
3:35 AM 39.2 °F 33.6 °F 32.0 °F 75% 30.39 in 10.0 mi NNW 8.1 mph - N/A   Clear
3:55 AM 41.0 °F 34.3 °F 32.0 °F 70% 30.40 in 10.0 mi NNW 11.5 mph - N/A   Clear
4:15 AM 39.2 °F 32.0 °F 32.0 °F 75% 30.41 in 10.0 mi NNW 11.5 mph - N/A   Clear
4:35 AM 39.2 °F 32.5 °F 32.0 °F 75% 30.42 in 10.0 mi NNW 10.4 mph - N/A   Clear
4:55 AM 37.4 °F 31.4 °F 30.2 °F 75% 30.42 in 10.0 mi NNW 8.1 mph - N/A   Clear
5:15 AM 37.4 °F 31.4 °F 28.4 °F 70% 30.43 in 10.0 mi NW 8.1 mph - N/A   Clear
5:35 AM 37.4 °F 31.4 °F 28.4 °F 70% 30.44 in 10.0 mi NW 8.1 mph - N/A   Clear
5:55 AM 35.6 °F 30.7 °F 28.4 °F 75% 30.45 in 10.0 mi NNW 5.8 mph - N/A   Clear
6:15 AM 37.4 °F 29.8 °F 28.4 °F 70% 30.46 in 10.0 mi NNW 11.5 mph - N/A   Clear
6:35 AM 37.4 °F 28.9 °F 26.6 °F 65% 30.46 in 10.0 mi NNW 13.8 mph - N/A   Clear
6:55 AM 37.4 °F 29.8 °F 26.6 °F 65% 30.47 in 10.0 mi NNW 11.5 mph - N/A   Clear
7:15 AM 37.4 °F 30.3 °F 26.6 °F 65% 30.48 in 10.0 mi NNW 10.4 mph - N/A   Clear
7:35 AM 37.4 °F 30.3 °F 26.6 °F 65% 30.49 in 10.0 mi NNW 10.4 mph - N/A   Clear
7:55 AM 39.2 °F 32.5 °F 24.8 °F 56% 30.50 in 10.0 mi NNW 10.4 mph - N/A   Clear
8:15 AM 39.2 °F 32.5 °F 24.8 °F 56% 30.51 in 10.0 mi NNW 10.4 mph - N/A   Clear
8:35 AM 41.0 °F 32.5 °F 24.8 °F 53% 30.52 in 10.0 mi North 17.3 mph 21.9 mph N/A   Clear
8:55 AM 41.0 °F 30.7 °F 21.2 °F 45% 30.52 in 10.0 mi North 25.3 mph 32.2 mph N/A   Clear
9:15 AM 41.0 °F 30.0 °F 19.4 °F 42% 30.53 in 10.0 mi North 28.8 mph 34.5 mph N/A   Clear
9:35 AM 42.8 °F 32.9 °F 19.4 °F 39% 30.53 in 10.0 mi North 26.5 mph 29.9 mph N/A   Clear
9:55 AM 42.8 °F 32.7 °F 17.6 °F 36% 30.54 in 10.0 mi North 27.6 mph 32.2 mph N/A   Clear
10:15 AM 44.6 °F 35.9 °F 17.6 °F 34% 30.55 in 10.0 mi North 23.0 mph 26.5 mph N/A   Clear
10:35 AM 44.6 °F 36.4 °F 17.6 °F 34% 30.55 in 10.0 mi NNW 20.7 mph - N/A   Clear
10:55 AM 44.6 °F 35.9 °F 17.6 °F 34% 30.55 in 10.0 mi NNW 23.0 mph - N/A   Clear
11:15 AM 46.4 °F 38.5 °F 17.6 °F 32% 30.55 in 10.0 mi NNW 21.9 mph 28.8 mph N/A   Clear
11:35 AM 46.4 °F 39.0 °F 15.8 °F 29% 30.55 in 10.0 mi NNW 19.6 mph 27.6 mph N/A   Clear
11:55 AM 46.4 °F 38.5 °F 15.8 °F 29% 30.54 in 10.0 mi North 21.9 mph 27.6 mph N/A   Clear
12:15 PM 46.4 °F 38.7 °F 15.8 °F 29% 30.53 in 10.0 mi North 20.7 mph 25.3 mph N/A   Clear
12:35 PM 46.4 °F 39.5 °F 15.8 °F 29% 30.53 in 10.0 mi North 17.3 mph - N/A   Clear
12:55 PM 46.4 °F 39.0 °F 14.0 °F 27% 30.52 in 10.0 mi NNW 19.6 mph 24.2 mph N/A   Clear
1:15 PM 46.4 °F 38.5 °F 14.0 °F 27% 30.51 in 10.0 mi NNW 21.9 mph 27.6 mph N/A   Clear
1:35 PM 46.4 °F 39.8 °F 14.0 °F 27% 30.51 in 10.0 mi NNW 16.1 mph 24.2 mph N/A   Clear
1:55 PM 46.4 °F 39.5 °F 15.8 °F 29% 30.50 in 10.0 mi NNW 17.3 mph 24.2 mph N/A   Clear
2:15 PM 46.4 °F 40.4 °F 15.8 °F 29% 30.49 in 10.0 mi NNW 13.8 mph 23.0 mph N/A   Clear
2:35 PM 48.2 °F - 15.8 °F 27% 30.49 in 10.0 mi NNW 16.1 mph 23.0 mph N/A   Clear
2:55 PM 46.4 °F 41.1 °F 15.8 °F 29% 30.49 in 10.0 mi NNW 11.5 mph 21.9 mph N/A   Clear
3:15 PM 46.4 °F 40.1 °F 15.8 °F 29% 30.49 in 10.0 mi NNW 15.0 mph - N/A   Clear
3:35 PM 46.4 °F 40.7 °F 15.8 °F 29% 30.49 in 10.0 mi North 12.7 mph 17.3 mph N/A   Clear
3:55 PM 46.4 °F 39.5 °F 15.8 °F 29% 30.49 in 10.0 mi North 17.3 mph - N/A   Clear
4:15 PM 46.4 °F 40.4 °F 15.8 °F 29% 30.48 in 10.0 mi NNW 13.8 mph - N/A   Clear
4:35 PM 46.4 °F 41.9 °F 15.8 °F 29% 30.48 in 10.0 mi NNW 9.2 mph - N/A   Clear
4:55 PM 44.6 °F 39.7 °F 15.8 °F 31% 30.48 in 10.0 mi NNW 9.2 mph - N/A   Clear
5:15 PM 42.8 °F 38.6 °F 15.8 °F 34% 30.48 in 10.0 mi North 6.9 mph - N/A   Clear
5:35 PM 41.0 °F 37.1 °F 15.8 °F 36% 30.47 in 10.0 mi North 5.8 mph - N/A   Clear
5:55 PM 39.2 °F 33.6 °F 15.8 °F 39% 30.47 in 10.0 mi North 8.1 mph - N/A   Clear
6:15 PM 37.4 °F 34.9 °F 15.8 °F 41% 30.48 in 10.0 mi North 3.5 mph - N/A   Clear
6:35 PM 37.4 °F 32.8 °F 15.8 °F 41% 30.47 in 10.0 mi NNW 5.8 mph - N/A   Clear
6:55 PM 35.6 °F 29.9 °F 15.8 °F 44% 30.47 in 10.0 mi NNW 6.9 mph - N/A   Clear
7:15 PM 33.8 °F 29.6 °F 15.8 °F 48% 30.47 in 10.0 mi North 4.6 mph - N/A   Clear
7:35 PM 33.8 °F 29.6 °F 17.6 °F 52% 30.47 in 10.0 mi NNW 4.6 mph - N/A   Clear
7:55 PM 32.0 °F 27.5 °F 15.8 °F 51% 30.47 in 10.0 mi NW 4.6 mph - N/A   Clear
8:15 PM 32.0 °F 26.4 °F 17.6 °F 55% 30.47 in 10.0 mi NNW 5.8 mph - N/A   Clear
8:35 PM 32.0 °F 24.8 °F 17.6 °F 55% 30.47 in 10.0 mi North 8.1 mph - N/A   Clear
8:55 PM 32.0 °F 26.4 °F 17.6 °F 55% 30.47 in 10.0 mi NNW 5.8 mph - N/A   Clear
9:15 PM 32.0 °F 26.4 °F 17.6 °F 55% 30.47 in 10.0 mi NNW 5.8 mph - N/A   Clear
9:35 PM 32.0 °F 27.5 °F 17.6 °F 55% 30.46 in 10.0 mi NNW 4.6 mph - N/A   Clear
9:55 PM 32.0 °F - 17.6 °F 55% 30.45 in 10.0 mi Calm Calm - N/A   Clear
10:15 PM 30.2 °F 26.7 °F 17.6 °F 60% 30.45 in 10.0 mi NNW 3.5 mph - N/A   Clear
10:35 PM 30.2 °F - 17.6 °F 60% 30.44 in 10.0 mi Calm Calm - N/A   Clear
10:55 PM 30.2 °F 26.7 °F 17.6 °F 60% 30.44 in 10.0 mi NW 3.5 mph - N/A   Clear
11:15 PM 28.4 °F - 17.6 °F 64% 30.44 in 10.0 mi Calm Calm - N/A   Clear
11:35 PM 28.4 °F - 17.6 °F 64% 30.43 in 10.0 mi Calm Calm - N/A   Clear
11:55 PM 26.6 °F - 15.8 °F 64% 30.44 in 10.0 mi Calm Calm - N/A   Clear